User: anonymous   Login
Location: Boca do Mato
(22.9085°S, 43.2930°W)
Time: 09:00:49
(UTC+00:00)
Language:

Chandra Rocket (1) - Orbit

View from above orbital plane
View from above orbital plane
View from above satellite
View from above satellite

Ground track
Ground track

The orbit data is extracted from the following two-line orbital elements,

1 25868U 99040C   20273.07675963  .00001062  00000-0  20271-3 0  9992
2 25868  28.4186 286.7937 4430221 196.8995 141.7006  6.55979246475249
Epoch (UTC): 29 September 2020 01:50:32
Eccentricity: 0.4430221
inclination: 28.4186°
perigee height: 336 km
apogee height: 11016 km
right ascension of ascending node: 286.7937°
argument of perigee: 196.8995°
revolutions per day: 6.55979246
mean anomaly at epoch: 141.7006°
orbit number at epoch: 47524

The dashed part of the orbit path shows where the satellite is in the earth's shadow,  

DLR